Weather reports worldwide

Advertisment
Monte Settepani, Italy (16111): temperature & dewpoint: 15.06.2018 23:00:00 - 21.06.2018 23:00:00 (CEST)Monte Settepani, Italy (16111): wind speed: 15.06.2018 23:00:00 - 21.06.2018 23:00:00 (CEST)Monte Settepani, Italy (16111): wind direction: 15.06.2018 23:00:00 - 21.06.2018 23:00:00 (CEST)Monte Settepani, Italy (16111): precipitation: 15.06.2018 23:00:00 - 21.06.2018 23:00:00 (CEST)
Date & Time tt [°C] td [°C] ff [km/h] ff [kn] dd rr [mm]
21.06.2018 23:00:00 - - - - - -
21.06.2018 22:00:00 16,1 15,9 - - - -
21.06.2018 21:00:00 16,0 15,8 - - - -
21.06.2018 20:00:00 16,1 16,0 - - - 0,0
21.06.2018 19:00:00 17,3 17,1 - - - -
21.06.2018 18:00:00 18,2 18,0 - - - -
21.06.2018 17:00:00 19,1 19,0 - - - -
21.06.2018 16:00:00 19,8 19,4 - - - -
21.06.2018 15:00:00 19,8 18,7 - - - -
21.06.2018 14:00:00 19,7 17,8 - - - 0,0
21.06.2018 13:00:00 20,1 17,1 - - - -
21.06.2018 12:00:00 20,1 18,0 - - - -
21.06.2018 11:00:00 19,1 16,6 - - - -
21.06.2018 10:00:00 18,5 15,7 4 2 S -
21.06.2018 09:00:00 17,8 15,2 0 0 N -
21.06.2018 08:00:00 17,5 14,9 5 3 NW 0,0
21.06.2018 07:00:00 16,6 14,2 9 5 NNW -
21.06.2018 06:00:00 16,2 13,6 9 5 NNW -
21.06.2018 05:00:00 15,5 12,6 8 4 NNW -
21.06.2018 04:00:00 15,7 13,3 5 3 NNW -
21.06.2018 03:00:00 16,9 14,3 2 1 NNE -
21.06.2018 02:00:00 17,2 14,6 0 0 N 0,0
21.06.2018 01:00:00 16,8 14,2 5 3 NNE -
21.06.2018 00:00:00 16,6 14,0 8 4 N -
20.06.2018 23:00:00 16,7 14,5 9 5 NNW -
20.06.2018 22:00:00 17,0 14,4 5 3 N -
20.06.2018 21:00:00 18,0 14,4 5 3 NNE -
20.06.2018 20:00:00 19,5 15,5 - - - 0,0
20.06.2018 19:00:00 20,3 15,9 4 2 N -
20.06.2018 18:00:00 20,8 16,3 - - - -
20.06.2018 17:00:00 21,6 16,9 4 2 NNE -
20.06.2018 16:00:00 21,8 15,6 4 2 ENE -
20.06.2018 15:00:00 21,4 16,3 8 4 ENE -
20.06.2018 14:00:00 20,5 16,3 5 3 NE 0,0
20.06.2018 13:00:00 20,5 17,1 4 2 NE -
20.06.2018 12:00:00 19,6 17,1 2 1 ENE -
20.06.2018 11:00:00 - - - - - -
20.06.2018 10:00:00 18,0 17,1 5 3 ESE -
20.06.2018 09:00:00 16,1 15,1 13 7 NNW -
20.06.2018 08:00:00 15,6 14,4 13 7 N -
20.06.2018 07:00:00 15,7 14,8 18 10 NNW -
20.06.2018 06:00:00 15,6 14,9 18 10 NNW -
20.06.2018 05:00:00 15,2 14,2 16 9 NW -
20.06.2018 04:00:00 16,0 14,6 - - - -
20.06.2018 03:00:00 17,0 15,1 4 2 N -
20.06.2018 02:00:00 16,7 15,2 8 4 N 0,0
20.06.2018 01:00:00 16,7 15,2 - - - -
20.06.2018 00:00:00 16,5 15,0 9 5 N -
19.06.2018 23:00:00 16,4 14,5 - - - -
19.06.2018 22:00:00 16,7 13,9 - - - -
19.06.2018 21:00:00 17,4 14,6 - - - -
19.06.2018 20:00:00 19,0 15,0 - - - 0,0
19.06.2018 19:00:00 20,7 16,4 - - - -
19.06.2018 18:00:00 21,0 15,9 - - - -
19.06.2018 17:00:00 21,8 16,9 - - - -
19.06.2018 16:00:00 21,8 17,9 - - - -
19.06.2018 15:00:00 22,4 18,1 - - - -
19.06.2018 14:00:00 21,3 16,8 - - - 0,0
19.06.2018 13:00:00 20,9 16,0 5 3 NNW -
19.06.2018 12:00:00 20,5 16,7 5 3 ENE -
19.06.2018 11:00:00 19,3 14,5 - - - -
19.06.2018 10:00:00 18,6 15,0 - - - -
19.06.2018 09:00:00 17,7 14,9 - - - -
19.06.2018 08:00:00 16,5 14,8 16 9 N 0,0
19.06.2018 07:00:00 15,6 14,6 - - - -
19.06.2018 06:00:00 14,6 12,8 - - - -
19.06.2018 05:00:00 15,5 12,4 - - - -
19.06.2018 04:00:00 15,6 13,2 - - - -
19.06.2018 03:00:00 15,8 13,9 - - - -
19.06.2018 02:00:00 16,2 14,7 - - - 0,0
19.06.2018 01:00:00 16,4 14,3 - - - -
19.06.2018 00:00:00 16,4 14,7 - - - -
18.06.2018 23:00:00 16,3 14,2 - - - -
18.06.2018 22:00:00 15,8 14,3 - - - -
18.06.2018 21:00:00 16,6 13,8 - - - -
18.06.2018 20:00:00 18,3 14,7 - - - 0,0
18.06.2018 19:00:00 19,4 16,0 - - - -
18.06.2018 18:00:00 19,7 16,1 - - - -
18.06.2018 17:00:00 20,5 16,0 - - - -
18.06.2018 16:00:00 20,7 17,4 - - - -
18.06.2018 15:00:00 20,1 16,9 - - - -
18.06.2018 14:00:00 19,6 16,0 - - - 0,0
18.06.2018 13:00:00 18,7 15,9 - - - -
18.06.2018 12:00:00 17,9 15,8 9 5 NNW -
18.06.2018 11:00:00 16,4 15,5 - - - -
18.06.2018 10:00:00 15,0 14,9 - - - -
18.06.2018 09:00:00 15,0 14,9 - - - -
18.06.2018 08:00:00 14,4 14,3 - - - 0,0
18.06.2018 07:00:00 14,9 14,5 - - - -
18.06.2018 06:00:00 14,4 13,1 - - - -
18.06.2018 05:00:00 14,7 12,8 - - - -
18.06.2018 04:00:00 15,0 13,0 - - - -
18.06.2018 03:00:00 15,6 13,9 - - - -
18.06.2018 02:00:00 15,2 13,5 13 7 NNW 0,0
18.06.2018 01:00:00 15,9 14,7 - - - -
18.06.2018 00:00:00 16,0 14,6 - - - -
17.06.2018 23:00:00 16,2 13,8 - - - -
17.06.2018 22:00:00 16,3 12,4 - - - -
17.06.2018 21:00:00 15,7 13,3 - - - -
17.06.2018 20:00:00 16,4 15,2 - - - 0,0
17.06.2018 19:00:00 17,7 15,1 - - - -
17.06.2018 18:00:00 18,3 16,4 - - - -
17.06.2018 17:00:00 18,4 16,3 9 5 S -
17.06.2018 16:00:00 17,0 16,9 8 4 SSE -
17.06.2018 15:00:00 18,7 18,2 4 2 S -
17.06.2018 14:00:00 19,2 16,2 - - - 0,0
17.06.2018 13:00:00 19,4 15,8 8 4 ENE -
17.06.2018 12:00:00 18,9 15,9 9 5 NNE -
17.06.2018 11:00:00 18,0 15,6 5 3 NE -
17.06.2018 10:00:00 17,4 16,2 5 3 SE -
17.06.2018 09:00:00 16,4 15,5 - - - -
17.06.2018 08:00:00 14,7 14,2 22 12 NW 0,0
17.06.2018 07:00:00 14,2 13,7 24 13 N -
17.06.2018 06:00:00 14,0 13,3 18 10 WNW -
17.06.2018 05:00:00 13,8 13,3 13 7 NNW -
17.06.2018 04:00:00 14,0 13,5 11 6 NW -
17.06.2018 03:00:00 13,9 12,8 8 4 N -
17.06.2018 02:00:00 14,1 12,8 4 2 NW 0,0
17.06.2018 01:00:00 14,4 12,6 4 2 N -
17.06.2018 00:00:00 14,8 12,8 4 2 NNW -
16.06.2018 23:00:00 14,9 12,7 5 3 N -
16.06.2018 22:00:00 15,6 13,4 4 2 NNW -
16.06.2018 21:00:00 16,3 13,9 0 0 N -
16.06.2018 20:00:00 16,2 12,9 2 1 S 0,0
16.06.2018 19:00:00 16,5 14,8 8 4 SSW -
16.06.2018 18:00:00 16,5 14,6 11 6 S -
16.06.2018 17:00:00 17,7 16,0 11 6 SSW -
16.06.2018 16:00:00 18,0 15,7 13 7 S -
16.06.2018 15:00:00 18,2 15,6 8 4 S -
16.06.2018 14:00:00 18,7 16,1 9 5 S 0,0
16.06.2018 13:00:00 16,7 14,3 8 4 S -
16.06.2018 12:00:00 17,0 14,9 4 2 NE -
16.06.2018 11:00:00 16,4 14,2 4 2 ENE -
16.06.2018 10:00:00 17,0 15,1 4 2 N -
16.06.2018 09:00:00 15,9 14,5 8 4 ENE -
16.06.2018 08:00:00 14,4 13,2 8 4 NNE 0,0
16.06.2018 07:00:00 13,4 13,0 4 2 N -
16.06.2018 06:00:00 12,8 12,2 11 6 NNW -
16.06.2018 05:00:00 12,4 11,0 13 7 N -
16.06.2018 04:00:00 12,6 10,3 11 6 N -
16.06.2018 03:00:00 12,8 10,7 11 6 NNE -
16.06.2018 02:00:00 12,9 11,8 11 6 N 0,0
16.06.2018 01:00:00 12,9 11,9 11 6 N -
16.06.2018 00:00:00 13,6 12,8 9 5 N -
15.06.2018 23:00:00 13,7 12,6 5 3 N -

tt = temperature
td = dewpoint
ff = wind speed
dd = wind direction
rr = precipitation

Next stations